User: anonymous   Login
Location: San Antonio
(29.4240°N, 98.4930°W)
Time: 07:24:59
(UTC-05:00)
Language:

A-11 Canister half - Orbit

View from above orbital plane
View from above orbital plane
View from above satellite
View from above satellite

Ground track
Ground track

The orbit data is extracted from the following two-line orbital elements,

1 00053U 60009E   24200.66421285 -.00000028  00000-0  56212-3 0  9995
2 00053  47.2793 336.9784 0100598 170.7380 189.5291 12.17341151850331
Epoch (UTC): 18 July 2024 15:56:27
Eccentricity: 0.0100598
inclination: 47.2793°
perigee height: 1524 km
apogee height: 1684 km
right ascension of ascending node: 336.9784°
argument of perigee: 170.7380°
revolutions per day: 12.17341151
mean anomaly at epoch: 189.5291°
orbit number at epoch: 85033

The dashed part of the orbit path shows where the satellite is in the earth's shadow,  

DLR